When you browse on this site, cookies collect data to enhance your experience and personalize the content and advertising you see.
Visit our Privacy Policy to learn more. By continuing to use the site, you agree to this use of cookies and data.
  • In Österreich
  • Länderverzeichnis
  • Für 7 Tage
  • Wassertemperatur
  • Satellitenkarten
  • Wetterkarte
  • News
  • Widgets
  • user-avatar
    Anmelden

    Stündliche Wetter Superior

    Heute, 19 Februar, Dienstag

    Zeit Temperatur Niederschläge Wind Luftdruck Luftfeuchtigkeit
    00:00 -14°C° 0 mm 1 m/S 758 mmHg 89%
    01:00 -14°C° 0 mm 1 m/S 758 mmHg 90%
    02:00 -15°C° 0 mm 1 m/S 758 mmHg 91%
    03:00 -15°C° 0 mm 1 m/S 758 mmHg 92%
    04:00 -16°C° 0 mm 1 m/S 758 mmHg 93%
    05:00 -16°C° 0 mm 1 m/S 758 mmHg 94%
    06:00 -16°C° 0 mm 1 m/S 758 mmHg 95%
    07:00 -15°C° 0 mm 1 m/S 758 mmHg 94%
    08:00 -16°C° 0 mm 2 m/S 758 mmHg 93%
    09:00 -16°C° 0 mm 2 m/S 758 mmHg 92%
    10:00 -14°C° 0 mm 2 m/S 758 mmHg 89%
    11:00 -13°C° 0 mm 3 m/S 757 mmHg 86%
    12:00 -12°C° 0 mm 3 m/S 757 mmHg 83%
    13:00 -10°C° 0 mm 3 m/S 756 mmHg 82%
    14:00 -9°C° 0 mm 3 m/S 755 mmHg 81%
    15:00 -9°C° 0 mm 3 m/S 755 mmHg 80%
    16:00 -10°C° 0 mm 3 m/S 754 mmHg 84%
    17:00 -10°C° 0 mm 2 m/S 754 mmHg 88%
    18:00 -13°C° 0 mm 2 m/S 753 mmHg 92%
    19:00 -13°C° 0 mm 2 m/S 753 mmHg 93%
    20:00 -14°C° 0 mm 2 m/S 753 mmHg 94%
    21:00 -14°C° 0 mm 2 m/S 753 mmHg 95%
    22:00 -14°C° 0 mm 2 m/S 753 mmHg 95%
    23:00 -13°C° 0 mm 2 m/S 752 mmHg 95%

    Morgen, 20 Februar, Mittwoch

    Zeit Temperatur Niederschläge Wind Luftdruck Luftfeuchtigkeit
    00:00 -13°C° 0 mm 2 m/S 752 mmHg 95%
    01:00 -11°C° 0 mm 1 m/S 751 mmHg 95%
    02:00 -11°C° 0 mm 1 m/S 750 mmHg 96%
    03:00 -12°C° 0 mm 1 m/S 749 mmHg 96%
    04:00 -11°C° 0.1 mm 1 m/S 749 mmHg 96%
    05:00 -11°C° 0.1 mm 1 m/S 748 mmHg 97%
    06:00 -10°C° 0.1 mm 1 m/S 747 mmHg 97%
    07:00 -10°C° 0.5 mm 1 m/S 747 mmHg 97%
    08:00 -10°C° 0.5 mm 2 m/S 746 mmHg 96%
    09:00 -10°C° 0.5 mm 2 m/S 746 mmHg 96%
    10:00 -10°C° 0.5 mm 3 m/S 745 mmHg 95%
    11:00 -9°C° 0.5 mm 3 m/S 743 mmHg 95%
    12:00 -9°C° 0.5 mm 4 m/S 742 mmHg 94%
    13:00 -9°C° 0.5 mm 4 m/S 741 mmHg 94%
    14:00 -8°C° 0.5 mm 4 m/S 740 mmHg 94%
    15:00 -8°C° 0.5 mm 4 m/S 739 mmHg 94%
    16:00 -8°C° 0.4 mm 4 m/S 739 mmHg 95%
    17:00 -7°C° 0.4 mm 3 m/S 738 mmHg 95%
    18:00 -8°C° 0.4 mm 3 m/S 738 mmHg 96%
    19:00 -8°C° 0.2 mm 3 m/S 738 mmHg 96%
    20:00 -7°C° 0.2 mm 2 m/S 738 mmHg 97%
    21:00 -7°C° 0.2 mm 2 m/S 737 mmHg 97%
    22:00 -7°C° 0.1 mm 2 m/S 738 mmHg 97%
    23:00 -7°C° 0.1 mm 2 m/S 738 mmHg 97%

    übermorgen, 21 Februar, Donnerstag

    Zeit Temperatur Niederschläge Wind Luftdruck Luftfeuchtigkeit
    00:00 -6°C° 0.1 mm 1 m/S 738 mmHg 97%
    01:00 -8°C° 0 mm 2 m/S 739 mmHg 96%
    02:00 -8°C° 0 mm 2 m/S 739 mmHg 96%
    03:00 -9°C° 0 mm 2 m/S 740 mmHg 96%
    04:00 -9°C° 0 mm 2 m/S 740 mmHg 96%
    05:00 -10°C° 0 mm 2 m/S 741 mmHg 96%
    06:00 -10°C° 0 mm 2 m/S 742 mmHg 96%
    07:00 -9°C° 0 mm 2 m/S 743 mmHg 95%
    08:00 -8°C° 0 mm 2 m/S 743 mmHg 94%
    09:00 -7°C° 0 mm 2 m/S 744 mmHg 93%
    10:00 -5°C° 0 mm 2 m/S 745 mmHg 91%
    11:00 -4°C° 0 mm 2 m/S 745 mmHg 89%
    12:00 -3°C° 0 mm 2 m/S 746 mmHg 87%
    13:00 -4°C° 0.1 mm 3 m/S 746 mmHg 85%
    14:00 -2°C° 0.1 mm 3 m/S 746 mmHg 84%
    15:00 -2°C° 0.1 mm 3 m/S 746 mmHg 82%
    16:00 -3°C° 0 mm 2 m/S 747 mmHg 85%
    17:00 -4°C° 0 mm 2 m/S 747 mmHg 87%
    18:00 -4°C° 0 mm 2 m/S 747 mmHg 90%
    19:00 -5°C° 0 mm 2 m/S 748 mmHg 91%
    20:00 -6°C° 0 mm 2 m/S 748 mmHg 92%
    21:00 -6°C° 0 mm 2 m/S 749 mmHg 94%
    22:00 -7°C° 0 mm 2 m/S 749 mmHg 94%
    23:00 -8°C° 0 mm 2 m/S 750 mmHg 94%

    22 Februar, Freitag

    Zeit Temperatur Niederschläge Wind Luftdruck Luftfeuchtigkeit
    00:00 -8°C° 0 mm 2 m/S 751 mmHg 95%
    01:00 -8°C° 0 mm 2 m/S 751 mmHg 95%
    02:00 -9°C° 0 mm 2 m/S 751 mmHg 95%
    03:00 -9°C° 0 mm 2 m/S 752 mmHg 96%
    04:00 -10°C° 0 mm 2 m/S 752 mmHg 96%
    05:00 -12°C° 0 mm 2 m/S 752 mmHg 96%
    06:00 -12°C° 0 mm 2 m/S 752 mmHg 96%
    07:00 -10°C° 0 mm 1 m/S 752 mmHg 95%
    08:00 -9°C° 0 mm 1 m/S 753 mmHg 93%
    09:00 -8°C° 0 mm 1 m/S 753 mmHg 92%
    10:00 -7°C° 0 mm 1 m/S 753 mmHg 89%
    11:00 -4°C° 0 mm 1 m/S 753 mmHg 86%
    12:00 -3°C° 0 mm 1 m/S 752 mmHg 84%
    13:00 -3°C° 0.2 mm 1 m/S 752 mmHg 86%
    14:00 -2°C° 0.2 mm 1 m/S 751 mmHg 88%
    15:00 -2°C° 0.2 mm 1 m/S 751 mmHg 91%
    16:00 -3°C° 0.6 mm 1 m/S 750 mmHg 93%
    17:00 -3°C° 0.6 mm 1 m/S 750 mmHg 95%
    18:00 -3°C° 0.6 mm 1 m/S 750 mmHg 98%
    19:00 -3°C° 0.8 mm 1 m/S 749 mmHg 98%
    20:00 -5°C° 0.8 mm 2 m/S 749 mmHg 98%
    21:00 -5°C° 0.8 mm 2 m/S 749 mmHg 98%
    22:00 -5°C° 0.5 mm 2 m/S 748 mmHg 97%
    23:00 -5°C° 0.5 mm 2 m/S 748 mmHg 97%

    23 Februar, Samstag

    Zeit Temperatur Niederschläge Wind Luftdruck Luftfeuchtigkeit
    00:00 -5°C° 0.5 mm 2 m/S 748 mmHg 97%
    01:00 -5°C° 0.2 mm 2 m/S 747 mmHg 97%
    02:00 -5°C° 0.2 mm 2 m/S 747 mmHg 98%
    03:00 -3°C° 0.2 mm 1 m/S 746 mmHg 98%
    04:00 -3°C° 0.1 mm 1 m/S 746 mmHg 98%
    05:00 -3°C° 0.1 mm 1 m/S 746 mmHg 98%
    06:00 -3°C° 0.1 mm 1 m/S 746 mmHg 98%
    07:00 -3°C° 0 mm 1 m/S 746 mmHg 97%
    08:00 -2°C° 0 mm 1 m/S 746 mmHg 97%
    09:00 -1°C° 0 mm 1 m/S 747 mmHg 96%
    10:00 -1°C° 0 mm 1 m/S 746 mmHg 95%
    11:00 -2°C° 0 mm 2 m/S 746 mmHg 94%
    12:00 -1°C° 0 mm 2 m/S 746 mmHg 93%
    13:00 -1°C° 0 mm 2 m/S 746 mmHg 93%
    14:00 -1°C° 0 mm 2 m/S 745 mmHg 92%
    15:00 -1°C° 0 mm 2 m/S 745 mmHg 91%
    16:00 -2°C° 0 mm 2 m/S 745 mmHg 92%
    17:00 -2°C° 0 mm 2 m/S 745 mmHg 93%
    18:00 -3°C° 0 mm 2 m/S 745 mmHg 94%
    19:00 -4°C° 0 mm 3 m/S 745 mmHg 94%
    20:00 -5°C° 0 mm 3 m/S 744 mmHg 94%
    21:00 -5°C° 0 mm 4 m/S 744 mmHg 95%
    22:00 -5°C° 0.1 mm 4 m/S 743 mmHg 93%
    23:00 -6°C° 0.1 mm 5 m/S 743 mmHg 92%

    24 Februar, Sonntag

    Zeit Temperatur Niederschläge Wind Luftdruck Luftfeuchtigkeit
    00:00 -6°C° 0.1 mm 5 m/S 742 mmHg 91%
    01:00 -6°C° 0.1 mm 5 m/S 742 mmHg 90%
    02:00 -8°C° 0.1 mm 6 m/S 741 mmHg 90%
    03:00 -8°C° 0.1 mm 6 m/S 740 mmHg 89%
    04:00 -8°C° 0.5 mm 6 m/S 740 mmHg 90%
    05:00 -9°C° 0.5 mm 6 m/S 740 mmHg 91%
    06:00 -8°C° 0.5 mm 5 m/S 740 mmHg 92%
    07:00 -10°C° 0.7 mm 6 m/S 740 mmHg 92%
    08:00 -10°C° 0.7 mm 6 m/S 740 mmHg 92%
    09:00 -10°C° 0.7 mm 6 m/S 740 mmHg 92%
    10:00 -10°C° 0.4 mm 6 m/S 740 mmHg 91%
    11:00 -10°C° 0.4 mm 5 m/S 740 mmHg 91%
    12:00 -8°C° 0.4 mm 5 m/S 740 mmHg 90%
    13:00 -8°C° 0.2 mm 5 m/S 741 mmHg 89%
    14:00 -8°C° 0.2 mm 4 m/S 741 mmHg 87%
    15:00 -8°C° 0.2 mm 4 m/S 741 mmHg 86%
    16:00 -9°C° 0 mm 4 m/S 742 mmHg 87%
    17:00 -9°C° 0 mm 3 m/S 743 mmHg 87%
    18:00 -9°C° 0 mm 3 m/S 743 mmHg 87%
    19:00 -10°C° 0 mm 3 m/S 744 mmHg 89%
    20:00 -10°C° 0 mm 2 m/S 745 mmHg 90%
    21:00 -13°C° 0 mm 2 m/S 745 mmHg 92%
    22:00 -14°C° 0 mm 2 m/S 746 mmHg 92%
    23:00 -15°C° 0 mm 2 m/S 746 mmHg 93%
    Mehr zeigen